#timestamp,LO_Frequency,Hit,StdDev 
1510484415.1,286046999.1,N
1510484435.8,286047000.6,N
1510484455.7,286046998.2,N
1510484475.5,286046998.8,N
1510484495.4,286046998.7,N
1510484515.2,286046998.3,N
1510484535.0,286046999.6,N
1510484535.9,286046999.6,N
1510484555.8,286046998.4,N
1510484575.6,286046998.7,N
1510484595.4,286046999.4,N
1510484615.3,286046999.0,N
1510484635.1,286046996.6,N
1510484655.9,286046996.9,N
1510484675.7,286046997.8,N
1510484695.5,286046997.2,N
1510484715.4,286046999.5,N
1510484735.2,286046998.0,N
1510484755.0,286046997.8,N
1510484755.9,286046997.8,N
1510484775.8,286046997.8,N
1510484795.6,286046999.4,N
1510484815.5,286046998.5,N
1510484835.3,286046998.9,N
1510484855.1,286046999.3,N
1510484875.9,286046998.0,N
1510484895.7,286046996.5,N
1510484915.6,286046995.7,Y
1510484935.4,286046997.0,P
1510484955.2,286046999.4,N
1510484975.1,286046999.3,N
1510484976.0,286046999.3,N
1510484995.8,286047000.6,N
1510485015.7,286047000.3,N
1510485035.5,286046998.2,N
1510485055.3,286046999.1,N
1510485075.2,286047000.8,N
1510485095.0,286046998.1,N
1510485095.9,286046998.1,N
1510485115.8,286046998.7,N
1510485135.6,286046998.4,N
1510485155.4,286046998.8,N
1510485175.3,286047000.5,N
1510485195.1,286047000.1,N
1510485215.8,286047000.4,N
1510485235.7,286047000.0,N
1510485255.5,286046999.9,N
1510485275.4,286047000.0,N
1510485295.2,286047002.8,N
1510485315.0,286046999.8,N
1510485315.9,286046999.8,N
1510485335.8,286047000.0,N
1510485355.6,286047002.2,N
1510485375.4,286047001.4,N
1510485395.3,286047003.9,Y
1510485415.1,286047003.2,P
1510485435.9,286047002.9,N
1510485455.7,286047004.2,N
1510485475.5,286047004.3,N
1510485495.4,286047001.4,N
1510485515.2,286047002.7,N
1510485535.0,286046998.1,N
1510485535.9,286046998.1,N
1510485555.8,286047000.7,N
1510485575.6,286046998.5,N
1510485595.5,286047002.7,N
1510485615.3,286047000.3,N
1510485635.1,286047002.4,N
1510485655.9,286047002.5,N
1510485675.7,286047002.7,N
1510485695.5,286047002.5,N
1510485715.4,286047000.9,N
1510485735.2,286046999.9,N
1510485755.1,286047002.8,N
1510485756.0,286047002.8,N
1510485775.8,286047001.9,N
1510485795.6,286047002.3,N
1510485815.5,286047000.4,N
1510485835.3,286046998.6,N
1510485855.1,286047000.0,N
1510485875.9,286047000.4,N
1510485895.7,286046998.9,N
1510485915.6,286046998.7,N
1510485935.4,286047001.2,N
1510485955.2,286046999.9,N
1510485975.1,286046998.6,N
1510485976.0,286046998.6,N
1510485995.8,286046998.2,N
1510486015.6,286046999.1,N
1510486035.5,286046998.7,N
1510486055.3,286046998.8,N
1510486075.2,286046998.5,N
1510486095.9,286047001.1,N
1510486115.7,286047002.7,N
1510486135.6,286047000.5,N
1510486155.4,286047002.3,N
1510486175.2,286047002.3,N
1510486195.1,286047002.5,N
1510486196.0,286047002.5,N
1510486215.8,286047002.4,N
1510486235.7,286047002.8,N
1510486255.5,286046999.8,N
1510486275.3,286047002.7,N
1510486295.2,286047000.4,N
1510486315.0,286047000.8,N
1510486315.9,286047000.8,N
1510486335.8,286047001.1,N
1510486355.6,286046998.7,N
1510486375.4,286046998.7,N
1510486395.3,286047000.6,N
1510486415.1,286046998.5,N
1510486435.9,286046998.5,N
1510486455.7,286046998.4,N
1510486475.5,286046999.8,N
1510486495.4,286047002.4,N
1510486515.2,286047000.6,N
1510486535.0,286047001.6,N
1510486535.9,286047001.6,N
1510486555.8,286047000.3,N
1510486575.6,286046998.4,N
1510486595.5,286046998.3,N
1510486615.3,286047000.7,N
1510486635.1,286047000.2,N
1510486655.9,286047000.0,N
1510486675.7,286047000.2,N
1510486695.5,286047000.1,N
1510486715.4,286046999.9,N
1510486735.2,286047001.1,N
1510486755.1,286047001.1,N
1510486756.0,286047001.1,N
1510486775.8,286047000.6,N
1510486795.6,286047000.0,N
1510486815.5,286047000.4,N
1510486835.3,286047000.6,N
1510486855.1,286047001.1,N
1510486875.9,286047000.6,N
1510486895.7,286047002.8,N
1510486915.6,286047002.8,N
1510486935.4,286047002.4,N
1510486955.2,286047000.7,N
1510486975.1,286047000.0,N
1510486976.0,286047000.0,N
1510486995.8,286046998.7,N
1510487015.6,286046998.8,N
1510487035.5,286047000.4,N
1510487055.3,286047000.8,N
1510487075.2,286046998.7,N
1510487095.9,286047000.4,N
1510487115.7,286047002.7,N
1510487135.6,286047001.5,N
1510487155.4,286047001.5,N
1510487175.2,286047002.3,N
1510487195.1,286047000.9,N
1510487196.0,286047000.9,N
1510487215.8,286047000.7,N
1510487235.7,286047002.2,N
1510487255.5,286047000.1,N
1510487275.4,286046999.5,N
1510487295.2,286046996.2,Y
1510487315.0,286046997.9,P
1510487315.9,286046997.9,N
1510487335.8,286046997.0,N
1510487355.6,286046996.7,N
1510487375.4,286046999.6,N
1510487395.3,286046999.1,N
1510487415.1,286046999.3,N
1510487435.9,286046998.9,N
1510487455.7,286046998.6,N
1510487475.5,286046996.8,N
1510487495.4,286046998.9,N
1510487515.2,286046999.4,N
1510487535.1,286046998.9,N
1510487536.0,286046998.9,N
1510487555.8,286046996.8,N
1510487575.6,286046995.1,Y
1510487595.5,286046999.1,P
1510487615.3,286046998.6,P
1510487635.1,286046999.5,N
1510487655.9,286046998.9,N
1510487675.7,286046999.4,N
1510487695.6,286046999.5,N
1510487715.4,286046998.9,N
1510487735.2,286046998.7,Y
1510487755.1,286047001.2,P
1510487756.0,286047001.2,N
1510487775.8,286046998.4,N
1510487795.6,286046998.8,N
1510487815.5,286046998.8,N
1510487835.3,286047000.4,N
1510487855.2,286046999.8,N
1510487875.9,286047000.1,N
1510487895.7,286047002.7,N
1510487915.6,286046999.8,N
1510487935.4,286047002.3,N
1510487955.2,286047001.1,N
1510487975.1,286047000.9,N
1510487976.0,286047000.9,N
1510487995.8,286046999.9,N
